星链-35334(STARLINK-35334)

导读

STARLINK-35334是美国SpaceX公司星链(Starlink)第二代低轨宽带通信卫星,于2025年11月11日发射入轨,属于全球规模最大卫星互联网星座的组成部分。它配备增强型相控阵天线与激光星间链路,支持全球高速低延迟互联网接入,应用覆盖偏远地区联网、移动通信与应急通信等场景。卫星设计寿命5-7年,退役后将自主脱轨在大气层完全烧毁,减少空间碎片影响。

Basic Information
目录编号:
66450
目录名称:
STARLINK-35334
国际标识:
2025-259AE
轨道中心:
EARTH
卫星名称:
星链-35334
卫星全名:
星链-35334(STARLINK-35334)
卫星状态:
在轨 (已飞行297 天)
发射日期:
2025-11-11 UTC
国别 :
美国 (US)
星等 :
--
Orbit Information
数据来源 国际轨道数据
星历时间: 2026-09-04T00:54:51+0800
17小时前
查看轨道信息
半长轴: 6861.127km
偏心率: 0.0003336
轨道倾角: 43.005°
近地点辐角 292.178°
升交点赤经 349.247°
平近点角 67.872°
近地点: 480.701km
远地点: 485.279km
周期: 94.266分钟
每日圈数: 15.276
Detailed Information
固有亮度:
5
最大亮度:
2.5
卫星平台:
Starlink V1.0
覆盖范围:
全球
运营商:
太空探索技术公司
运营商所在国:
美国
制造商(研发单位):
太空探索技术公司
制造商所在国:
美国
使用方式:
暂无
Satellite Introduction
Starlink 计划是 SpaceX 推出的全球卫星互联网项目,通过发射低轨道卫星,为全球尤其是偏远地区提供高速、低延迟的互联网服务。自 2019 年起,Starlink 已部署数千颗卫星,旨在缩小全球数字鸿沟,推动互联网普及。该项目还为军事、航空等行业提供通信支持,带来广泛经济效益。
2D Orbit Map
3D Orbit Map
Orbit Altitude Analysis Chart
Orbit Inclination Analysis Chart
Orbit Comprehensive Analysis Chart
View Comprehensive Chart
Conjunction Data List
Event ID Objects TCA Miss Dist (km) Collision Risk Probability Collision Risk Index (CRI) Action
CDM_260906-063705-949406-645021
2026-09-06T
06:37:45+0000
1.550 km
极远距离
3.364469E-6 低风险 0.46
CDM_260906-093705-935606-645021
2026-09-06T
09:37:16+0000
1.262 km
极远距离
2.561949E-6 低风险 0.43
CDM_260906-102405-935606-645021
2026-09-06T
10:24:21+0000
1.266 km
极远距离
2.534322E-6 低风险 0.43
CDM_260906-080305-935606-645021
2026-09-06T
08:03:06+0000
1.364 km
极远距离
2.002756E-6 低风险 0.41
CDM_260906-050305-949406-645021
2026-09-06T
05:03:35+0000
2.617 km
极远距离
9.806034E-7 极低风险 0.35
CDM_260906-081105-949406-645021
2026-09-06T
08:11:54+0000
2.983 km
极远距离
8.262745E-7 极低风险 0.33
CDM_260906-085005-935606-645021
2026-09-06T
08:50:11+0000
2.052 km
极远距离
6.883075E-7 极低风险 0.32